Overview Statistics Trail Chart Weather Telemetry Raw packets
 

This is the latest recevied weather packets stored in our database for station/object R2AJV-13. If no packets are shown the sender has not sent any weather packets the latest 10 day(s).

<< 3 4 5 6 7 8 9 >>
Time Temp. Humidity Pressure Rain* Wind** Luminosity Snow
1788594343 13.33° C 99% 976.4 hPa 5.59 mm - - -
1788592528 13.33° C 99% 978 hPa 5.08 mm - - -
1788591618 13.33° C 99% 978.6 hPa 5.59 mm - - -
1788590768 12.78° C 99% 979.2 hPa 6.1 mm - - -
1788589863 13.33° C 99% 979.9 hPa 5.08 mm - - -
1788588951 13.33° C 99% 980.6 hPa 4.83 mm - - -
1788588041 13.33° C 99% 981.2 hPa 3.56 mm - - -
1788587130 12.78° C 99% 981.5 hPa 3.05 mm - - -
1788586219 12.78° C 99% 982.1 hPa 2.29 mm - - -
1788585375 12.78° C 99% 982.6 hPa 1.27 mm - - -
1788584432 12.78° C 99% 983.1 hPa 1.52 mm - - -
1788583526 12.78° C 99% 983.4 hPa 1.27 mm - - -
1788582616 12.78° C 99% 983.6 hPa 1.27 mm - - -
1788581765 12.78° C 99% 984.1 hPa 1.52 mm - - -
1788580854 12.78° C 99% 984.6 hPa 1.27 mm - - -
1788579039 12.78° C 99% 985.1 hPa 0.51 mm - - -
1788578128 12.78° C 99% 985.4 hPa 0.25 mm - - -
1788577218 12.78° C 99% 985.5 hPa 0.25 mm - - -
1788576367 12.78° C 98% 985.7 hPa 0.25 mm - - -
1788575462 12.78° C 98% 986.1 hPa 0.51 mm - - -
1788574551 13.33° C 97% 986.5 hPa 0.51 mm - - -
1788573640 13.33° C 97% 986.6 hPa 0.25 mm - - -
1788572731 13.33° C 95% 986.9 hPa 0.25 mm - - -
1788571819 13.33° C 93% 987.3 hPa 0 mm - - -
1788570974 13.33° C 92% 987.4 hPa 0 mm - - -

* Rain latest hour (hover to see other rain measurements)
** Current wind speed in m/s (hover to see current wind gust speed)